Regional Weather Roundup
Issued by NWS

Home | Current Version | Previous Version | Graphics & Text | Print | Product List | Glossary Off
Versions: 1 2 3 4 5 6 7 8 9 10 11 12 13 14 15 16 17 18 19 20 21 22 23 24 25 26 27 28 29 30 31 32 33 34 35 36 37 38 39 40 41 42 43 44 45 46 47 48 49 50

000
ASUS43 KMPX 180901
RWRMN
WEATHER ROUNDUP FOR MINNESOTA
NATIONAL WEATHER SERVICE TWIN CITIES/CHANHASSEN MN
400 AM CDT SAT APR 18 2015


NOTE: "FAIR" INDICATES FEW OR NO CLOUDS BELOW 12,000 FEET WITH NO
SIGNIFICANT WEATHER AND/OR OBSTRUCTIONS TO VISIBILITY. N/A MEANS
CURRENT SKY AND/OR WEATHER CONDITIONS ARE NOT AVAILABLE.

MNZ060>063-068>070-181000-
   Twin Cities Metro

CITY           SKY/WX    TMP DP  RH WIND       PRES   REMARKS
TWIN CITIES    PTCLDY    51  32  48 N7        30.05F
ST PAUL        CLEAR     48  33  56 VRB3      30.06F
CRYSTAL        CLEAR     49  31  49 NE6       30.05F
BLAINE         CLEAR     52  32  46 NE7       30.06S
LAKEVILLE      CLEAR     39  34  81 CALM      30.05R
EDEN PRAIRIE   CLEAR     51  29  42 N6        30.04S
SOUTH ST PAUL  CLEAR     47  35  61 CALM      30.05S
LAKE ELMO      FAIR      50  32  50 NE6       30.06F
$$
MNZ001>005-007-008-013>017-022>024-027-028-181000-
   Northwest Minnesota

CITY           SKY/WX    TMP DP  RH WIND       PRES   REMARKS
BEMIDJI        CLEAR     37  29  74 E7        30.16R
HALLOCK        CLEAR     39  28  65 E13       30.17S
ROSEAU         CLEAR     36  28  75 E8        30.19S
WARROAD        CLEAR     36  30  80 E8        30.21R
THIEF RVR FALL CLEAR     37  28  70 E9        30.17R
CROOKSTON      CLEAR     37  28  70 E5        30.17R
FOSSTON        CLEAR     37  27  65 E5        30.16R
DETROIT LAKES  CLEAR     46  28  49 E7        30.13S
MOORHEAD       CLEAR     39  21  48 N7        30.11F
PARK RAPIDS    CLEAR     45  27  49 NE6       30.14R
MAHNOMEN       FAIR      37  26  63 E5        30.13R
$$
MNZ006-009>011-018-025>026-181000-
   North Central Minnesota

CITY           SKY/WX    TMP DP  RH WIND       PRES   REMARKS
BAUDETTE       CLEAR     34  28  79 NE3       30.20S
FLAG ISLAND    CLEAR     34  30  86 CALM      30.21F
INTL FALLS     CLEAR     28  24  85 NE3       30.21R
WASKISH        CLEAR     36  30  80 NE9       30.18R
BIG FORK       CLEAR     37  28  70 E3        30.18R
LONGVILLE      CLEAR     36  27  69 CALM      30.15R
GRAND RAPIDS   CLEAR     41  27  56 CALM      30.16R
ORR            CLEAR     36  28  75 CALM      30.16S
COOK           CLEAR     36  30  80 NE3       30.19R
WALKER         FAIR      43  30  61 NE5       30.15R
$$
MNZ012-019>021-037-181000-
   Northeast Minnesota

CITY           SKY/WX    TMP DP  RH WIND       PRES   REMARKS
DULUTH         CLEAR     43  29  57 E14       30.16R
ELY            CLEAR     37  30  75 NE6       30.19S
HIBBING        CLEAR     39  28  64 NE5       30.17R
EVELETH        CLEAR     36  30  80 NE5       30.18R
DULUTH HARBOR  CLEAR     39  36  87 E9        30.19R
TWO HARBORS    CLEAR     43  30  61 NE6       30.16R
SILVER BAY     CLEAR     41  30  65 N5        30.17R
GRAND MARAIS     N/A     41  30  65 VRB7      30.19R
G MARAIS ARPRT CLEAR     34  27  75 N16       30.17R WCI  23
$$
MNZ029>031-032-039>041-046>048-054>057-064-181000-
   West Central Minnesota

CITY           SKY/WX    TMP DP  RH WIND       PRES   REMARKS
FERGUS FALLS   PTCLDY    50  19  29 E12G17    30.10S
WHEATON        PTCLDY    39  25  56 NE5       30.09S
MORRIS         PTCLDY    50  27  40 NE15      30.05F
ALEXANDRIA     PTCLDY    48  24  39 NE10      30.10F
ELBOW LAKE     FAIR      50  26  39 NE9       30.08S
WADENA         CLEAR     43  25  49 NE6       30.12R
GLENWOOD       PTCLDY    45  28  53 NE10      30.09S
APPLETON       CLEAR     45  27  49 E8        30.05S
BENSON         CLEAR     48  28  46 E9        30.05F
ORTONVILLE     CLEAR     46  28  49 E7        30.04F
MADISON        PTCLDY    39  23  52 W9        30.06R
WILLMAR        FAIR      52  30  43 NE12      30.06F
$$
MNZ033>034-036-042>043-049>051-058-059-181000-
   Central Minnesota

CITY           SKY/WX    TMP DP  RH WIND       PRES   REMARKS
ST CLOUD       CLEAR     50  26  39 NE7       30.08S
SAUK CENTRE    FAIR      49  27  41 NE7       30.09S
PAYNESVILLE    CLEAR     45  27  50 N7        30.08F
AITKIN         CLEAR     43  28  56 NE3       30.13S
PINE RIVER     CLEAR     41  27  56 NE3       30.17S
BRAINERD       CLEAR     45  27  49 NE8       30.12F
STAPLES        CLEAR     45  23  42 NE3       30.12S
LONG PRAIRIE   FAIR      45  30  57 N6        30.11R
LITTLE FALLS   CLEAR     46  25  42 CALM      30.11R
LITCHFIELD     CLEAR     52  30  43 NE9       30.06F
BUFFALO        CLEAR     50  30  46 NE9       30.07S
MAPLE LAKE     CLEAR     52  30  43 NE8       30.08S
$$
MNZ037-044-045-052-053-181000-
   East Central Minnesota

CITY           SKY/WX    TMP DP  RH WIND       PRES   REMARKS
PRINCETON      CLEAR     48  28  46 N6        30.09S
MORA           CLEAR     46  25  42 NE5       30.13R
CAMBRIDGE      CLEAR     52  34  50 N6        30.08R
RUSH CITY      PTCLDY    50  27  41 NE10      30.10R
MOOSE LAKE     CLEAR     46  28  49 CALM      30.13S
HINCKLEY       FAIR      46  30  53 NE7       30.12R
CLOQUET        CLEAR     43  28  56 NE6       30.16R
MCGREGOR       CLEAR     41  30  65 N6        30.15S
$$
MNZ071>073-080-081-089-090-097-098-181000-
   Southwest Minnesota

CITY           SKY/WX    TMP DP  RH WIND       PRES   REMARKS
MONTEVIDEO     CLEAR     41  21  45 E5        30.06R
GRANITE FALLS  CLEAR     41  20  43 W5        30.08R
CANBY          PTCLDY    40  27  59 W5        30.07R
MARSHALL       PTCLDY    43  18  36 W5        30.05R
REDWOOD FALLS  PTCLDY    45  27  49 CALM      30.05R
OLIVIA         CLEAR     46  25  42 NE3       30.04R
PIPESTONE      PTCLDY    55  18  22 E5        30.04S
WINDOM         MOCLDY    52  25  35 CALM      30.05S
WORTHINGTON    PTCLDY    48  25  40 NE5       30.05S
JACKSON        PTCLDY    50  28  43 NE8       30.05S
TRACY          PTCLDY    49  26  40 CALM      30.05S
SLAYTON        MOCLDY    49  23  35 CALM      30.06S
$$
MNZ065>067-074>077-082>085-091>093-181000-
   South Central Minnesota

CITY           SKY/WX    TMP DP  RH WIND       PRES   REMARKS
MANKATO        PTCLDY    57  28  33 N5        30.05R
NEW ULM        PTCLDY    46  27  46 CALM      30.05R
ST JAMES       MOCLDY    48  30  49 CALM      30.06R
FAIRMONT       PTCLDY    54  25  32 N7        30.04S
GLENCOE        PTCLDY    48  30  49 CALM      30.05R
FARIBAULT      PTCLDY    43  37  81 CALM      30.06R
OWATONNA       PTCLDY    45  32  61 CALM      30.05S
ALBERT LEA     PTCLDY    52  37  58 NE5       30.05S
$$
MNZ078>079-086>088-094>096-181000-
   Southeast Minnesota

CITY           SKY/WX    TMP DP  RH WIND       PRES   REMARKS
ROCHESTER      PTCLDY    50  36  58 CALM      30.06F
RED WING       CLEAR     39  34  81 N3        30.05R
STANTON        CLEAR     38  33  82 S5        30.04R
DODGE CENTER   PTCLDY    50  34  53 CALM      30.05S
WINONA         CLEAR     48  45  87 CALM      30.05S
AUSTIN         PTCLDY    54  37  54 CALM      30.05R
PRESTON        PTCLDY    53  38  57 CALM      30.06S
$$
ABBREVIATIONS USED IN REMARKS
   TC - TEMPERATURES IN CELSIUS
  WCI - WIND CHILL INDEX
   HX - HEAT INDEX
  VSB - VISIBILITY
$$



USA.gov is the U.S. government's official web portal to all federal, state and local government web resources and services.